www.pogodaiklimat.ru

Погода и климат >> Архив погоды >> Макао >> Макао


ПОГОДА Макао

  • Прогноз погоды Макао
  • Монитор погоды Макао

АРХИВ ПОГОДЫ Макао

Время (UTC), дата Ветер
(напр.,м/с)
 
Видим.   Явления Облачность Т
(С)
Тd
(С)
f
(%)
Тe
(С)
Тes
(С)
Комфортность P
(гПа)
Po
(гПа)
Тmin
(С)
Tmax
(С)
R
(мм)
R24
(мм)
S
(см)
00 14.06 С 4 18 км 9/9 300 м
[]
+26.5 +23.8 85 +36 +37 очень
душно
1003.0 1002.3 +24.4 4
03 14.06 СВ 4 16 км 6/0 2000 м
[]
+29.6 +24.2 73 +41 +52 опасность
перегрева
1003.7 1003.0
06 14.06 СВ 2 28 км 3/3 600 м
[]
+31.6 +23.6 63 +43 +56 опасность
перегрева
1002.4 1001.7
09 14.06 Ю 2 22 км 4/4 1500 м
[]
+28.9 +22.0 66 +37 +40 очень
душно
1001.2 1000.5
12 14.06 С 2 25 км ясно +27.1 +21.2 70 +34 +34 очень
душно
1003.1 1002.4 +31.9
15 14.06 СЗ 1 21 км ясно +27.0 +20.9 69 +34 +34 очень
душно
1004.6 1003.9
18 14.06 З 2 7000 м 4/4 1000 м
[]
+26.9 +23.4 81 +36 +36 очень
душно
1004.6 1003.9
21 14.06 С 3 6000 м ясно +25.4 +23.9 91 +35 +35 очень
душно
1004.5 1003.8
00 15.06 СВ 4 22 км ясно +27.9 +22.3 72 +37 +40 очень
душно
1005.7 1005.0 +24.6
03 15.06 С 3 21 км ясно +30.8 +23.1 64 +41 +59 опасность
перегрева
1006.7 1006.0
06 15.06 В 3 19 км 1/1 300 м
[]
+29.4 +24.3 74 +41 +57 опасность
перегрева
1005.4 1004.7
09 15.06 В 4 24 км 9/9 1500 м
[]
+28.1 +23.9 78 +39 +39 очень
душно
1004.2 1003.5
12 15.06 В 4 21 км 9/9 1500 м
[]
+27.3 +24.1 83 +38 +38 очень
душно
1005.7 1005.0 +31.7
15 15.06 В 3 15 км 9/0 2000 м
[]
+27.0 +24.6 87 +38 +38 очень
душно
1006.5 1005.8
18 15.06 В 4 15 км 9/9 200 м
[]
+26.4 +24.5 89 +37 +37 очень
душно
1005.3 1004.6
21 15.06 В 5 18 км 9/9 300 м
[]
+26.1 +24.0 88 +36 +36 очень
душно
1005.4 1004.7
00 16.06 В 5 18 км 9/9 300 м
[]
+27.4 +24.1 82 +38 +38 очень
душно
1006.5 1005.8 +25.9
03 16.06 В 5 20 км 4/0
[]
+28.5 +24.1 77 +40 +48 очень
душно
1007.2 1006.5
06 16.06 В 5 15 км 1/0
[]
+28.7 +24.1 76 +40 +49 очень
душно
1005.7 1005.0
09 16.06 В 6 12 км 1/0
[]
+27.5 +23.6 79 +37 +39 очень
душно
1005.5 1004.8
12 16.06 В 6 11 км 6/6 1500 м
[]
+26.7 +23.6 83 +36 +36 очень
душно
1007.0 1006.3 +29.3
15 16.06 В 5 11 км 8/8 300 м
[]
+26.5 +24.2 87 +37 +37 очень
душно
1008.2 1007.5
18 16.06 В 6 10 км 9/9 300 м
[]
+26.4 +24.5 89 +37 +37 очень
душно
1006.6 1005.9
21 16.06 В 4 12 км 10/10 300 м
[]
+26.5 +24.3 88 +37 +37 очень
душно
1006.1 1005.4
00 17.06 В 3 15 км 9/9 300 м
[]
+28.3 +24.8 81 +40 +41 очень
душно
1007.3 1006.6 +26.3
03 17.06 В 5 13 км 9/9 300 м
[]
+27.9 +24.8 83 +40 +41 очень
душно
1007.9 1007.2
06 17.06 СВ 3 6000 м {ливн. осадки, дождь} 9/9 200 м
[]
+27.0 +26.1 95 +41 +42 опасность
перегрева
1006.6 1005.9
09 17.06 В 3 25 км {дождь} 9/9 200 м
[]
+27.3 +26.2 94 +41 +42 опасность
перегрева
1005.5 1004.8
12 17.06 Ю 4 35 км {дождь} 9/9 200 м
[]
+27.2 +25.7 92 +40 +40 очень
душно
1007.0 1006.3 +29.7 9
15 17.06 Ю 2 50 км 4/4 200 м
[]
+27.0 +25.6 92 +40 +40 очень
душно
1008.9 1008.2
18 17.06 Ю 3 22 км 9/9 100 м
[]
+27.3 +26.0 93 +41 +41 опасность
перегрева
1007.9 1007.2
21 17.06 Ю 3 35 км {дождь} 9/9 300 м
[]
+26.1 +24.5 91 +37 +37 очень
душно
1007.7 1007.0
00 18.06 ЮВ 3 7000 м дождь 9/9 50 м
[]
+27.9 +26.6 93 +43 +44 опасность
перегрева
1008.2 1007.5 +25.9 2
03 18.06 ЮЗ 2 16 км дождь {ливн. осадки} 9/9 100 м
[]
+28.4 +26.1 87 +43 +45 опасность
перегрева
1009.1 1008.4
06 18.06 Ю 2 29 км {гроза, ливн. осадки} 1/0
[]
+28.5 +25.5 84 +42 +60 опасность
перегрева
1007.9 1007.2
09 18.06 Ю 1 19 км 8/8 200 м
[]
+28.2 +26.2 89 +43 +44 опасность
перегрева
1006.9 1006.2
12 18.06 ЮВ 2 15 км 9/9 200 м
[]
+27.4 +26.2 93 +41 +41 опасность
перегрева
1007.8 1007.1 +30.0 22
15 18.06 Ю 2 12 км 9/9 100 м
[]
+27.4 +26.6 95 +42 +42 опасность
перегрева
1008.6 1007.9
18 18.06 ЮЗ 2 17 км 3/3 300 м
[]
+27.3 +26.1 93 +41 +41 опасность
перегрева
1007.8 1007.1
21 18.06 ЮЗ 1 18 км в посл. час туман ясно +27.0 +26.0 94 +40 +40 очень
душно
1007.8 1007.1
00 19.06 Ю 2 20 км {дождь, туман} 5/5 300 м
[]
+28.3 +25.2 83 +41 +44 опасность
перегрева
1009.0 1008.3 +25.6 4
03 19.06 Ю 2 45 км 9/0 2000 м
[]
+29.6 +25.3 78 +43 +54 опасность
перегрева
1009.2 1008.5

 

Местоположение метеостанции Макао (Макао): широта 22.15 долгота 113.60 высота над уровнем моря 6 м.

В архиве по умолчанию представлена погода Макао за последнюю неделю. Архивные данные за месяц целиком и за предыдущие месяцы, начиная с января 2011 года, Вы можете получить, выбрав интересующий диапазон дат из раскрывающегося списка и нажав кнопку "Ввод!".


*Определитесь, кто Вы:
робот инопланетянин человек

Внимание! Время в таблицах - всемирное. Для получения местного времени необходимо прибавить поправку, которая равна 8 ч.

Смотрите также архив погоды в соседних городах и на ближайших метеорологических станциях:

Погода в Гонконге (Гонконг) (37 км)
Погода Cheung Chau (Гонконг) (43 км)
Погода Lau Fau Shan (Гонконг) (53 км)
Погода Sha Tin (Гонконг) (68 км)
Погода в Шэньчжэне (Гуандун, Китай) (68 км)
Погода Ta Kwu Ling (Гонконг) (71 км)
Погода на Шанчуан Дао (Гуандун, Китай) (98 км)
Погода в Гуанчжоу (Гуандун, Китай) (117 км)
Погода в Гаояо (Гуандун, Китай) (154 км)
Погода в Янцзяне (Гуандун, Китай) (172 км)

Пояснения к столбцам:

Ветер - указаны скорость ветра в м/с - средняя за 10 мин, порывы в срок и между сроками (в фигурных скобках) и направление, откуда дует ветер: С - северный, СВ - северо-восточный, В - восточный, ЮВ - юго-восточный, Ю - южный, ЮЗ - юго-западный, З - западный, СЗ - северо-западный.
Видимость - горизонтальная дальность видимости в метрах или километрах. При видимости от 1 до 10 км при отсутствии осадков обычно наблюдается дымка, при ухудшении видимости до 1 км и менее - туман. В сухую погоду видимость может ухудшаться дымом, пылью или мглою.
Явления - указаны атмосферные явления, наблюдавшиеся в срок или в последний час перед сроком; фигурными скобками обозначены явления, наблюдавшиеся между сроками (за 1-3 часа до срока); квадратными скобками обозначены град или гололедные отложения с указанием их диаметра в мм.
Облачность - указаны через наклонную черту общая и нижняя облачность в баллах и высота нижней границы облаков в метрах; квадратными скобками обозначены формы облаков: Ci - перистые, Cs - перисто-слоистые, Cc - перисто-кучевые, Ac - высококучевые, As - высокослоистые, Sc - слоисто-кучевые, Ns - слоисто-дождевые, Cu - кучевые, Cb - кучево-дождевые. Подробнее классификацию облаков см. в Атласе облаков (PDF).
T - Температура воздуха - температура, измеренная на высоте 2 м над землей.
Td - Температура точки росы - температура, при понижении до которой содержащийся в воздухе водяной пар достигнет насыщения.
f - Относительная влажность воздуха - влажноcть воздуха, измеренная на высоте 2 м над землей.
Te - Эффективная температура - температура, которую ощущает одетый по сезону человек в тени. Характеристика душности погоды. При расчете учитывается влияние влажности воздуха и скорости ветра на теплоощущения человека.
Tes - Эффективная температура на солнце - температура, которую ощущает человек, с поправкой на солнечный нагрев. Характеристика знойности погоды. Зависит от высоты солнца над горизонтом, облачности и скорости ветра. Ночью, в пасмурную погоду, а также при ветре 12 м/с и более поправка равна нулю.
P - Атмосферное давление - приведенное к уровню моря атмосферное давление.
Po - Атмосферное давление - измеренное на уровне метеостанции атмосферное давление.
Tmin - Минимальная температура - минимум температуры воздуха на высоте 2 м над землей.
Tmax - Максимальная температура - максимум температуры воздуха на высоте 2 м над землей.
R - Количество осадков - Количество выпавших осадков за период времени, мм. При наведении курсора мыши на число - период времени, за который выпало указанное количество осадков.
R24 - Количество осадков - Количество выпавших осадков за 24 часа, мм.
S - Снежный покров - Высота снежного покрова, см. При наведении курсора мыши на число - состояние снежного покрова и степень покрытия местности в баллах.